Regional Weather Roundup
Issued by NWS Jackson, KY

Home | Current Version | Previous Version | Graphics & Text | Print | Product List | Glossary On
Versions: 1 2 3 4 5 6 7 8 9 10 11 12 13 14 15 16 17 18 19 20 21 22 23 24 25 26 27 28 29 30 31 32 33 34 35 36 37 38 39 40 41 42 43 44 45 46 47 48 49 50
000
ASUS43 KJKL 232110
RWRJKL

EAST KENTUCKY HOURLY WEATHER ROUNDUP
NATIONAL WEATHER SERVICE JACKSON KY
400 PM EST MON JAN 23 2017

NOTE: "FAIR" INDICATES FEW OR NO CLOUDS BELOW 12,000 FEET WITH
NO SIGNIFICANT WEATHER AND/OR OBSTRUCTIONS TO VISIBILITY.

* THESE REPORTS ARE NOT UNDER NWS QUALITY CONTROL AND MAY NOT
  REPORT WEATHER SUCH AS PRECIPITATION AND FOG.

KYZ079-080-083-085-087-088-110-112-115-119-120-232200
...EASTERN KENTUCKY...

CITY           SKY/WX    TMP DP  RH WIND       PRES   REMARKS
JACKSON        LGT RAIN  48  46  93 NW8       29.45R FOG
LONDON         LGT RAIN  47  45  93 NW13      29.50R FOG
SOMERSET*      CLOUDY    46  46 100 N13G21    29.56R FOG
MONTICELLO*    LGT RAIN  47  45  93 NW15G21   29.57R
WILLIAMSBURG*  CLOUDY    48  48 100 NW9G20    29.51R
MIDDLESBORO*   RAIN      49  47  92 NW16G22   29.48R
HARLAN APT*    CLOUDY    46  45  93 SW8       29.45R
PIKE CO APT*   DRIZZLE   47  47 100 N12       29.41R
BIG SANDY APT* DRIZZLE   48  48 100 N5        29.43R
MOREHEAD APT*  PTCLDY    50  48  93 NW8G14    29.49R FOG
ASHLAND*       PTSUNNY   48  46  93 NE5       29.45R
$$

KYZ035-036-041-042-044-050-067-078-099-232200
...CENTRAL KENTUCKY...

CITY           SKY/WX    TMP DP  RH WIND       PRES   REMARKS
MT STERLING*   CLOUDY    46  46 100 N9        29.52R
FLEMING/MASON* DRIZZLE   48  47  99 N7        29.51R
DANVILLE*      DRIZZLE   45  45 100 NW14G24   29.57R
LEXINGTON      LGT RAIN  48  45  89 NW14G22   29.54R FOG
FRANKFORT      CLOUDY    47  43  86 NW13G23   29.56R FOG
LOUISVILLE     CLOUDY    47  41  80 NW14      29.62R
LEBANON*       CLOUDY    46  45  93 NW14G21   29.59R
GLASGOW*       CLOUDY    45  43  95 NW7G16    29.65R FOG
BOWLING GREEN  CLOUDY    46  39  76 NW10G16   29.67R
$$

KYZ091>093-OHZ055-061-077-WVZ005-015-034-035-042-232200
...SOUTHERN OHIO/WEST VIRGINIA...

CITY           SKY/WX    TMP DP  RH WIND       PRES   REMARKS
COVINGTON      CLOUDY    47  45  93 NW16      29.55R
COLUMBUS       CLOUDY    49  45  86 NE6       29.52R
DAYTON         LGT RAIN  44  42  93 N13       29.57R
WILMINGTON     LGT RAIN  47  46  97 N13G23    29.52R FOG
HUNTINGTON     LGT RAIN  48  45  89 N8        29.45R VSB 1
CHARLESTON     CLOUDY    46  41  82 E12       29.43R
BECKLEY        CLOUDY    43  38  82 NE9       29.37R
BLUEFIELD      LGT RAIN  41  39  93 NE6       29.37R FOG
LOGAN CO APT*  MOCLDY    46  45  93 NE5       29.40R
$$

VAZ002-007-008-TNZ017-027-036-066-071-232200
...SOUTHWEST VIRGINIA/EAST TENNESSEE...

CITY           SKY/WX    TMP DP  RH WIND       PRES   REMARKS
WISE*          HVY RAIN  46  46 100 NW6G16    29.41R
JONESVILLE*      N/A     50  48  93 W7        29.45R FOG
ABINGDON*      CLOUDY    50  47  90 CALM      29.37R
BRISTOL        LGT RAIN  50  48  93 W6        29.38R FOG
MORRISTOWN*    CLOUDY    52  48  87 NW14G22   29.43R
SEVIERVILLE*   CLOUDY    52  46  82 NW9       29.46R
KNOXVILLE      CLOUDY    55  46  71 NW9G21    29.46R
LAFOLLETTE*    CLOUDY    50  46  87 VRB7G15   29.52R FOG
OAK RIDGE      PTSUNNY   56  44  64 NW14G24   29.49R
CROSSVILLE     CLOUDY    44  42  93 NW14G20   29.56R
NASHVILLE      CLOUDY    48  39  71 NW15G22   29.69R
$$

...KEY TO REMARKS...
VSB - VISIBILITY IN MILES
WCI - WIND CHILL INDEX
HX  - HEAT INDEX

$$



USA.gov is the U.S. government's official web portal to all federal, state and local government web resources and services.